Weather History for Manado, Indonesia

Change the Weather History Date:

Saturday, July 20, 2013

  Actual Average Record
Temperature  
Mean Temperature 73 °F -  
Max Temperature 84 °F - - ()
Min Temperature 62 °F - - ()
Cooling Degree Days 8    
Growing Degree Days 23 (Base 50)    
Moisture  
Dew Point 73 °F    
Average Humidity 89    
Maximum Humidity 100    
Minimum Humidity 66    
Precipitation  
Precipitation 1.46 in - - ()
Sea Level Pressure  
Sea Level Pressure 29.82 in    
Wind  
Wind Speed 4 mph ()    
Max Wind Speed 12 mph    
Max Gust Speed -    
Visibility 4.3 miles    
Events Rain    
T = Trace of Precipitation, MM = Missing Value Source: Averaged Metar Reports

Daily Weather History Graph

Daily Weather History Graph

Search for Another Location

Airport:

Trip Planner

Search our weather history database for the weather conditions in past years. The results will help you decide how hot, cold, wet, or windy it might be!

Date:

Astronomy

Jul. 20, 2013 Rise Set
Actual Time 5:40 AM WITA 5:52 PM WITA
Civil Twilight 5:18 AM WITA 6:14 PM WITA
Nautical Twilight 4:52 AM WITA 6:40 PM WITA
Astronomical Twilight 4:27 AM WITA 7:06 PM WITA
Moon 3:20 PM WITA (7/20) 2:43 AM WITA (7/20)
Length of Visible Light 12h 55m
Length of Day
12h 11m
Waxing Gibbous, 90% of the Moon is Illuminated
Jul 20
Waxing Gibbous
Jul 23
Full
Jul 30
Last Quarter
Aug 7
New
Aug 14
First Quarter

Hourly Weather History & Observations

Time (WITA) Temp. Heat Index Dew Point Humidity Pressure Visibility Wind Dir Wind Speed Gust Speed Precip Events Conditions
12:00 AM 75.2 °F - 73.4 °F 94% 29.86 in 1.2 mi North 9.2 mph - N/A Rain Rain
12:30 AM 73.4 °F - 73.4 °F 100% 29.83 in 2.5 mi SSE 4.6 mph - N/A Rain Light Rain
1:00 AM 73.4 °F - 73.4 °F 100% 29.86 in 1.2 mi West 4.6 mph - N/A Rain Rain
1:30 AM 73.4 °F - 73.4 °F 100% 29.83 in 2.5 mi North 2.3 mph - N/A Rain Rain
2:00 AM 73 °F - 72 °F 98% 29.85 in 2 mi WSW 4.6 mph - - Rain Light Rain
2:00 AM 73.4 °F - 73.4 °F 100% 29.83 in 2.5 mi WSW 4.6 mph - N/A Rain Rain
2:30 AM 73.4 °F - 71.6 °F 94% 29.83 in 2.5 mi SW 4.6 mph - N/A Rain Rain
3:00 AM 73.4 °F - 71.6 °F 94% 29.83 in 2.5 mi WNW 6.9 mph - N/A Rain Rain
3:30 AM 73.4 °F - 71.6 °F 94% 29.83 in 2.5 mi WNW 5.8 mph - N/A Rain Rain
4:00 AM 73.4 °F - 71.6 °F 94% 29.83 in 2.5 mi West 2.3 mph - N/A Rain Rain
4:30 AM 73.4 °F - 73.4 °F 100% 29.83 in 2.5 mi WSW 4.6 mph - N/A Rain Rain
5:00 AM 74 °F - 73 °F 95% 29.84 in - West 4.6 mph - - Rain Light Rain
5:00 AM 73.4 °F - 73.4 °F 100% 29.83 in 3.1 mi West 4.6 mph - N/A Rain Rain
5:30 AM 75.2 °F - 73.4 °F 94% 29.83 in 5.0 mi WNW 2.3 mph - N/A Rain Light Rain
6:00 AM 75.2 °F - 73.4 °F 94% 29.83 in 5.0 mi NW 1.2 mph - N/A Rain Light Rain
6:30 AM 75.2 °F - 73.4 °F 94% 29.83 in 5.0 mi SE 3.5 mph - N/A Rain Light Rain
7:00 AM 75.2 °F - 73.4 °F 94% 29.83 in 5.0 mi SE 3.5 mph - N/A Rain Light Rain
7:30 AM 77.0 °F - 73.4 °F 89% 29.83 in 5.6 mi South 2.3 mph - N/A Rain Light Rain
8:00 AM 76 °F - 74 °F 91% 29.82 in 6 mi SE 3.5 mph - - Rain Light Rain
8:00 AM 77.0 °F - 73.4 °F 89% 29.80 in 5.6 mi ESE 2.3 mph - N/A   Mostly Cloudy
8:30 AM 77.0 °F - 73.4 °F 89% 29.83 in 5.6 mi East 2.3 mph - N/A   Mostly Cloudy
9:00 AM 78.8 °F - 73.4 °F 83% 29.83 in 5.6 mi SE 3.5 mph - N/A   Mostly Cloudy
9:30 AM 78.8 °F - 73.4 °F 83% 29.83 in 5.6 mi East 1.2 mph - N/A   Mostly Cloudy
10:00 AM 78.8 °F - 73.4 °F 83% 29.83 in 5.6 mi SE 2.3 mph - N/A   Light Drizzle
10:30 AM 78.8 °F - 73.4 °F 83% 29.83 in 5.6 mi Calm Calm - N/A   Light Drizzle
11:00 AM 81 °F - 73 °F 71% 29.83 in 6 mi Calm Calm - - Rain Light Freezing Drizzle
11:00 AM 80.6 °F 85.4 °F 73.4 °F 79% 29.80 in 5.6 mi Calm Calm - N/A   Mostly Cloudy
11:30 AM 80.6 °F 85.4 °F 73.4 °F 79% 29.80 in 5.6 mi NNE 1.2 mph - N/A   Mostly Cloudy
12:00 PM 84.2 °F 89.6 °F 71.6 °F 66% 29.77 in 5.6 mi WNW 1.2 mph - N/A   Mostly Cloudy
1:00 PM 84.2 °F 89.6 °F 71.6 °F 66% 29.77 in 5.6 mi WNW 3.5 mph - N/A   Mostly Cloudy
1:30 PM 84.2 °F 89.6 °F 71.6 °F 66% 29.77 in 5.6 mi WNW 3.5 mph - N/A Rain Light Rain
2:00 PM 82 °F - 72 °F 66% 29.77 in 6 mi WNW 3.5 mph - - Rain Light Rain
2:00 PM 82.4 °F 88.2 °F 73.4 °F 74% 29.77 in 5.6 mi WNW 3.5 mph - N/A Rain Light Rain
2:30 PM 82.4 °F 88.2 °F 73.4 °F 74% 29.77 in 5.6 mi WNW 4.6 mph - N/A Rain Light Rain
3:00 PM 75.2 °F - 73.4 °F 94% 29.80 in 3.1 mi West 11.5 mph - N/A Rain Light Rain
3:30 PM 75.2 °F - 73.4 °F 94% 29.80 in 3.1 mi West 10.4 mph - N/A Rain Light Rain
4:00 PM 75.2 °F - 71.6 °F 89% 29.80 in 3.1 mi West 8.1 mph - N/A Rain Light Rain
4:30 PM 75.2 °F - 71.6 °F 89% 29.80 in 3.7 mi SW 6.9 mph - N/A Rain Light Rain
5:00 PM 75 °F - 71 °F 85% 29.82 in 4 mi WSW 6.9 mph - - Rain Light Rain
5:00 PM 75.2 °F - 71.6 °F 89% 29.80 in 3.7 mi WSW 8.1 mph - N/A Rain Light Rain
5:30 PM 75.2 °F - 71.6 °F 89% 29.80 in 3.7 mi WSW 9.2 mph - N/A Rain Light Rain
6:00 PM 75.2 °F - 71.6 °F 89% 29.83 in 5.0 mi WSW 9.2 mph - N/A Rain Light Rain
6:30 PM 73.4 °F - 71.6 °F 94% 29.83 in 5.0 mi West 4.6 mph - N/A Rain Light Rain
7:00 PM 73.4 °F - 71.6 °F 94% 29.83 in 5.0 mi NW 2.3 mph - N/A Rain Light Rain
8:00 PM 74 °F - 71 °F 88% 29.86 in 5 mi Calm Calm - - Rain Light Rain
8:00 PM 73.4 °F - 71.6 °F 94% 29.86 in 5.0 mi Calm Calm - N/A Rain Light Rain
9:00 PM 73.4 °F - 71.6 °F 94% 29.86 in 3.7 mi SE 3.5 mph - N/A Rain Rain
9:30 PM 73.4 °F - 73.4 °F 100% 29.86 in 3.7 mi SE 2.3 mph - N/A Rain Rain
10:00 PM 75.2 °F - 73.4 °F 94% 29.86 in 3.7 mi Calm Calm - N/A Rain Rain
10:30 PM 73.4 °F - 73.4 °F 100% 29.86 in 5.0 mi Calm Calm - N/A Rain Rain
11:00 PM 74 °F - 73 °F 97% 29.86 in 5 mi ENE 1.2 mph - - Rain Light Rain
11:00 PM 75.2 °F - 73.4 °F 94% 29.86 in 5.0 mi South 1.2 mph - N/A Rain Light Rain
11:30 PM 73.4 °F - 73.4 °F 100% 29.83 in 5.0 mi NNE 2.3 mph - N/A Rain Light Rain